Hourly Weather Kyzylbulak

Today, 21 October, Wednesday

Time Temperature Precipitation Wind Pressure Humidity
00:00 +3°C° 0 mm 3 mps 750 mmHg 74%
01:00 +3°C° 0 mm 3 mps 750 mmHg 74%
02:00 +2°C° 0 mm 3 mps 750 mmHg 73%
03:00 +2°C° 0 mm 3 mps 750 mmHg 71%
04:00 +2°C° 0 mm 3 mps 750 mmHg 69%
05:00 +1°C° 0 mm 3 mps 750 mmHg 68%
06:00 +1°C° 0 mm 3 mps 750 mmHg 67%
07:00 0°C° 0 mm 4 mps 750 mmHg 66%
08:00 +1°C° 0 mm 4 mps 750 mmHg 59%
09:00 +3°C° 0 mm 5 mps 750 mmHg 52%
10:00 +5°C° 0 mm 6 mps 750 mmHg 45%
11:00 +5°C° 0 mm 7 mps 750 mmHg 44%
12:00 +6°C° 0 mm 7 mps 750 mmHg 43%
13:00 +7°C° 0 mm 8 mps 750 mmHg 42%
14:00 +6°C° 0 mm 8 mps 750 mmHg 44%
15:00 +6°C° 0 mm 8 mps 750 mmHg 46%
16:00 +5°C° 0 mm 7 mps 750 mmHg 47%
17:00 +4°C° 0 mm 7 mps 750 mmHg 54%
18:00 +3°C° 0 mm 6 mps 750 mmHg 61%
19:00 +2°C° 0 mm 6 mps 750 mmHg 68%
20:00 +1°C° 0 mm 6 mps 751 mmHg 72%
21:00 +1°C° 0 mm 6 mps 751 mmHg 76%
22:00 -1°C° 0 mm 6 mps 751 mmHg 80%
23:00 0°C° 0 mm 5 mps 751 mmHg 79%

Tomorrow, 22 October, Thursday

Time Temperature Precipitation Wind Pressure Humidity
00:00 -1°C° 0 mm 5 mps 751 mmHg 77%
01:00 -1°C° 0 mm 4 mps 751 mmHg 76%
02:00 -2°C° 0 mm 4 mps 751 mmHg 77%
03:00 -2°C° 0 mm 4 mps 752 mmHg 78%
04:00 -3°C° 0 mm 4 mps 752 mmHg 79%
05:00 -3°C° 0 mm 4 mps 752 mmHg 80%
06:00 -2°C° 0 mm 3 mps 752 mmHg 82%
07:00 -4°C° 0 mm 3 mps 753 mmHg 83%
08:00 -2°C° 0 mm 4 mps 753 mmHg 75%
09:00 -1°C° 0 mm 4 mps 753 mmHg 67%
10:00 0°C° 0 mm 5 mps 754 mmHg 58%
11:00 +1°C° 0 mm 5 mps 753 mmHg 55%
12:00 +1°C° 0 mm 5 mps 753 mmHg 51%
13:00 +2°C° 0 mm 6 mps 753 mmHg 47%
14:00 +2°C° 0 mm 5 mps 753 mmHg 47%
15:00 +2°C° 0 mm 5 mps 753 mmHg 46%
16:00 +2°C° 0 mm 5 mps 754 mmHg 46%
17:00 +1°C° 0 mm 4 mps 754 mmHg 51%
18:00 +1°C° 0 mm 3 mps 754 mmHg 55%
19:00 0°C° 0 mm 3 mps 754 mmHg 60%
20:00 -1°C° 0 mm 2 mps 754 mmHg 63%
21:00 -1°C° 0 mm 2 mps 754 mmHg 65%
22:00 -2°C° 0 mm 2 mps 754 mmHg 68%
23:00 -2°C° 0 mm 2 mps 754 mmHg 69%

Day after tomorrow, 23 October, Friday

Time Temperature Precipitation Wind Pressure Humidity
00:00 -2°C° 0 mm 2 mps 754 mmHg 71%
01:00 -3°C° 0 mm 2 mps 754 mmHg 72%
02:00 -3°C° 0 mm 2 mps 754 mmHg 73%
03:00 -3°C° 0 mm 2 mps 754 mmHg 74%
04:00 -3°C° 0 mm 2 mps 755 mmHg 75%
05:00 -4°C° 0 mm 2 mps 755 mmHg 76%
06:00 -4°C° 0 mm 2 mps 755 mmHg 77%
07:00 -4°C° 0 mm 2 mps 755 mmHg 78%
08:00 -2°C° 0 mm 2 mps 755 mmHg 70%
09:00 +1°C° 0 mm 2 mps 755 mmHg 63%
10:00 +1°C° 0 mm 3 mps 755 mmHg 56%
11:00 +3°C° 0 mm 3 mps 755 mmHg 53%
12:00 +4°C° 0 mm 3 mps 755 mmHg 50%
13:00 +5°C° 0 mm 4 mps 754 mmHg 48%
14:00 +5°C° 0 mm 4 mps 754 mmHg 48%
15:00 +5°C° 0 mm 4 mps 754 mmHg 48%
16:00 +5°C° 0 mm 4 mps 753 mmHg 49%
17:00 +4°C° 0.1 mm 4 mps 753 mmHg 57%
18:00 +4°C° 0.1 mm 4 mps 753 mmHg 66%
19:00 +3°C° 0.1 mm 4 mps 753 mmHg 75%
20:00 +3°C° 0.6 mm 4 mps 752 mmHg 79%
21:00 +2°C° 0.6 mm 5 mps 752 mmHg 83%
22:00 +2°C° 0.6 mm 5 mps 752 mmHg 87%
23:00 +3°C° 0.6 mm 5 mps 751 mmHg 89%

24 October, Saturday

Time Temperature Precipitation Wind Pressure Humidity
00:00 +3°C° 0.6 mm 5 mps 751 mmHg 90%
01:00 +3°C° 0.6 mm 5 mps 750 mmHg 92%
02:00 +5°C° 0.2 mm 4 mps 750 mmHg 91%
03:00 +6°C° 0.2 mm 4 mps 749 mmHg 91%
04:00 +6°C° 0.2 mm 4 mps 749 mmHg 91%
05:00 +6°C° 0 mm 4 mps 749 mmHg 91%
06:00 +6°C° 0 mm 4 mps 749 mmHg 91%
07:00 +5°C° 0 mm 4 mps 748 mmHg 92%
08:00 +6°C° 0 mm 5 mps 748 mmHg 87%
09:00 +7°C° 0 mm 5 mps 748 mmHg 83%
10:00 +8°C° 0 mm 6 mps 748 mmHg 78%
11:00 +9°C° 0 mm 7 mps 747 mmHg 75%
12:00 +10°C° 0 mm 7 mps 747 mmHg 72%
13:00 +11°C° 0 mm 8 mps 747 mmHg 69%
14:00 +11°C° 1.4 mm 9 mps 746 mmHg 75%
15:00 +10°C° 1.4 mm 9 mps 746 mmHg 81%
16:00 +8°C° 1.4 mm 10 mps 746 mmHg 86%
17:00 +10°C° 0.8 mm 9 mps 746 mmHg 87%
18:00 +10°C° 0.8 mm 9 mps 746 mmHg 87%
19:00 +10°C° 0.8 mm 8 mps 746 mmHg 87%
20:00 +9°C° 0 mm 7 mps 747 mmHg 88%
21:00 +9°C° 0 mm 6 mps 747 mmHg 89%
22:00 +8°C° 0 mm 5 mps 747 mmHg 90%
23:00 +8°C° 0 mm 5 mps 748 mmHg 89%

25 October, Sunday

Time Temperature Precipitation Wind Pressure Humidity
00:00 +8°C° 0 mm 5 mps 748 mmHg 87%
01:00 +10°C° 0 mm 4 mps 748 mmHg 85%
02:00 +8°C° 0 mm 4 mps 748 mmHg 87%
03:00 +8°C° 0 mm 4 mps 749 mmHg 88%
04:00 +8°C° 0 mm 5 mps 749 mmHg 89%
05:00 +8°C° 0 mm 4 mps 749 mmHg 90%
06:00 +7°C° 0 mm 4 mps 749 mmHg 92%
07:00 +8°C° 0 mm 3 mps 750 mmHg 93%
08:00 +9°C° 0 mm 3 mps 750 mmHg 88%
09:00 +10°C° 0 mm 3 mps 750 mmHg 83%
10:00 +11°C° 0 mm 3 mps 750 mmHg 77%
11:00 +12°C° 0 mm 3 mps 751 mmHg 72%
12:00 +14°C° 0 mm 2 mps 751 mmHg 67%
13:00 +15°C° 0 mm 2 mps 751 mmHg 62%
14:00 +15°C° 0 mm 2 mps 751 mmHg 65%
15:00 +15°C° 0 mm 2 mps 750 mmHg 67%
16:00 +15°C° 0 mm 2 mps 750 mmHg 70%
17:00 +14°C° 0 mm 2 mps 750 mmHg 72%
18:00 +14°C° 0 mm 2 mps 750 mmHg 75%
19:00 +14°C° 0 mm 2 mps 750 mmHg 77%
20:00 +14°C° 0.1 mm 2 mps 750 mmHg 79%
21:00 +14°C° 0.1 mm 2 mps 750 mmHg 82%
22:00 +14°C° 0.1 mm 2 mps 750 mmHg 84%
23:00 +12°C° 0 mm 3 mps 750 mmHg 86%

26 October, Monday

Time Temperature Precipitation Wind Pressure Humidity
00:00 +12°C° 0 mm 3 mps 750 mmHg 89%
01:00 +12°C° 0 mm 3 mps 750 mmHg 91%
02:00 +12°C° 0 mm 3 mps 749 mmHg 88%
03:00 +12°C° 0 mm 3 mps 749 mmHg 85%
04:00 +11°C° 0 mm 3 mps 749 mmHg 82%
05:00 +11°C° 0 mm 3 mps 749 mmHg 83%
06:00 +11°C° 0 mm 3 mps 749 mmHg 84%
07:00 +10°C° 0 mm 3 mps 749 mmHg 85%
08:00 +11°C° 0 mm 4 mps 749 mmHg 83%
09:00 +12°C° 0 mm 4 mps 749 mmHg 82%
10:00 +13°C° 0 mm 5 mps 749 mmHg 81%
11:00 +14°C° 0 mm 5 mps 749 mmHg 77%
12:00 +15°C° 0 mm 5 mps 749 mmHg 74%
13:00 +16°C° 0 mm 5 mps 749 mmHg 71%
14:00 +16°C° 0 mm 5 mps 748 mmHg 65%
15:00 +17°C° 0 mm 4 mps 748 mmHg 60%
16:00 +17°C° 0 mm 4 mps 748 mmHg 55%
17:00 +15°C° 0 mm 4 mps 748 mmHg 52%
18:00 +14°C° 0 mm 4 mps 748 mmHg 49%
19:00 +13°C° 0 mm 4 mps 748 mmHg 46%
20:00 +13°C° 0 mm 4 mps 748 mmHg 45%
21:00 +13°C° 0 mm 4 mps 748 mmHg 45%
22:00 +13°C° 0 mm 4 mps 748 mmHg 44%
23:00 +13°C° 0 mm 4 mps 748 mmHg 45%

27 October, Tuesday

Time Temperature Precipitation Wind Pressure Humidity
00:00 +13°C° 0 mm 4 mps 748 mmHg 45%
01:00 +12°C° 0 mm 4 mps 748 mmHg 45%
02:00 +12°C° 0 mm 4 mps 748 mmHg 45%
03:00 +12°C° 0 mm 4 mps 748 mmHg 46%
04:00 +11°C° 0 mm 3 mps 748 mmHg 46%
05:00 +11°C° 0 mm 3 mps 748 mmHg 48%
06:00 +11°C° 0 mm 3 mps 748 mmHg 49%
07:00 +11°C° 0 mm 3 mps 748 mmHg 51%
08:00 +11°C° 0 mm 3 mps 748 mmHg 50%
09:00 +12°C° 0 mm 3 mps 748 mmHg 50%
10:00 +12°C° 0 mm 4 mps 749 mmHg 50%
11:00 +12°C° 0 mm 4 mps 749 mmHg 50%
12:00 +13°C° 0 mm 4 mps 749 mmHg 51%
13:00 +13°C° 0 mm 4 mps 749 mmHg 52%
14:00 +12°C° 0.1 mm 4 mps 749 mmHg 59%
15:00 +12°C° 0.1 mm 3 mps 750 mmHg 66%
16:00 +11°C° 0.1 mm 3 mps 750 mmHg 73%
17:00 +11°C° 0 mm 3 mps 750 mmHg 70%
18:00 +11°C° 0 mm 3 mps 750 mmHg 67%
19:00 +11°C° 0 mm 3 mps 751 mmHg 64%
20:00 +11°C° 0 mm 3 mps 751 mmHg 63%
21:00 +11°C° 0 mm 3 mps 751 mmHg 63%
22:00 +11°C° 0 mm 3 mps 751 mmHg 62%
23:00 +11°C° 0 mm 4 mps 751 mmHg 64%
Show more

We Need Your Consent

Meteoprog and our Service Providers may store and access personal data such as cookies, device identifiers or other similar technologies on your device and process such data to personalise content and ads, as well as provide social media features and to analyse the traffic.

  • Store and/or access information on your device

    Cookies, device identifiers or other information can be stored or accessed on your device for the purposes indicated above.

  • Personalised ads and content, ad and content measurement, audience insights, and products development

    Ads and content can be personalised based on a profile. More data can be added to better personalise ads and content. Ad and content performance can be measured. Insights about the audience who saw the ads and content can be derived. Such data can be used to develop or improve user’s experience, systems and software.

By clicking ‘I Agree’ you will allow the use of indicated cookies, device identifiers, web beacons or other similar technologies. Your settings can be changed in the browser on your device.

For certain purposes, legitimate interests may be relied on, rather than consent. You can read more about this in our Privacy and Cookie Policy.